Hourly Data Report for October 05, 2016

All times are specified in Local Standard Time (LST). Add 1 hour to adjust for Daylight Saving Time where and when it is observed.

GJOA HAVEN A
NUNAVUT

68°38'08.000" N
95°51'01.000" W
46.90 m
2302337
71597
YHK

Download Data

Hourly Data (October 2016)
Hourly Data Report for October 5, 2016
Temp Definition
°C
Dew Point Temp Definition
°C
Rel Hum Definition
%
Wind Dir Definition
10's deg

Wind Spd Definition
km/h
Visibility Definition
km
Stn Press Definition
kPa
Hmdx Definition


Wind Chill Definition


Weather Definition


TIME
00:00 Legend Double Dagger -2.9 -4.4 90 31 24 16.1 101.20   -10 LegendNANA
01:00 Legend Double Dagger -3.0 -4.4 90 33 28 16.1 101.25   -10 LegendNANA
02:00 Legend Double Dagger -2.9 -4.2 91 31 21 16.1 101.32   -9 LegendNANA
03:00 Legend Double Dagger -2.4 -3.8 90 31 24 16.1 101.36   -9 LegendNANA
04:00 Legend Double Dagger -2.3 -4.0 88 31 18 16.1 101.45   -8 LegendNANA
05:00 Legend Double Dagger -2.3 -3.6 91 28 13 16.1 101.49   -7 LegendNANA
06:00 Legend Double Dagger -2.1 -2.7 96 27 17 14.5 101.52   -7 Snow
07:00 Legend Double Dagger -1.7 -2.1 97 29 15 9.7 101.54   -7 Snow
08:00 Legend Double Dagger -1.5 -2.1 96 29 18 16.1 101.58   -7 Snow
09:00 Legend Double Dagger -1.2 -2.0 94 30 21 16.1 101.61   -7 Snow
10:00 Legend Double Dagger -1.2 -2.2 93 30 22 16.1 101.64   -7 LegendNANA
11:00 Legend Double Dagger -0.8 -1.9 92 31 24 16.1 101.67   -7 LegendNANA
12:00 Legend Double Dagger -0.4 -1.9 90 30 17 16.1 101.72   -5 LegendNANA
13:00 Legend Double Dagger -0.1 -1.7 89 30 24 16.1 101.76   -6 LegendNANA
14:00 Legend Double Dagger -0.3 -2.7 84 30 24 16.1 101.76   -6 LegendNANA
15:00 Legend Double Dagger -0.5 -2.4 87 29 26 16.1 101.79   -7 LegendNANA
16:00 Legend Double Dagger -0.9 -2.0 92 29 24 16.1 101.79   -7 LegendNANA
17:00 Legend Double Dagger -0.8 -1.9 92 28 17 16.1 101.80   -6 LegendNANA
18:00 Legend Double Dagger -0.9 -1.6 95 28 15 16.1 101.81   -6 LegendNANA
19:00 Legend Double Dagger -2.0 -2.4 97 28 13 16.1 101.80   -6 LegendNANA
20:00 Legend Double Dagger -1.6 -1.9 98 26 15 16.1 101.79   -6 LegendNANA
21:00 Legend Double Dagger -0.8 -1.1 98 27 17 16.1 101.76   -6 Snow
22:00 Legend Double Dagger -0.6 -0.7 99 25 15 16.1 101.72   -5 Snow
23:00 Legend Double Dagger -0.4 -0.4 100 28 15 11.3 101.70   -5 Snow

Notes on Data Quality.

Legend

  • E = Estimated
  • M = Missing
  • NA = Not Available
  • ‡ = Partner data that is not subject to review by the National Climate Archives
Date modified: